Weather in Palm Beach

United States     26°41′34″N   80°02′11″W
temp.,
°C
wind,
m/s
gust,
m/s
humid.,
%
clouds,
%
prec.,
mm/h
press.,
hPa
HPBL,
m
18 may, tue
tue1823:00+25e7862100 0.1 10201168
02:00+25e7859100 0.1 10191567
05:00+25e8856100 0.0 10191673
08:00+25e886142 0.1 10201091
11:00+26e88598 0.0 10211515
14:00+26ene88557 0.1 10201532
17:00+26e896316 0.2 10191297
20:00+25ene91065100 0.4 10191170
19 may, wed
wed1923:00+25e910605 0.1 10211560
02:00+25e8105954 0.1 10201507
05:00+24e8971100 0.1 10181141
08:00+25e91068100 0.4 10201278
11:00+26e91060100 0.0 10211545
14:00+26e10116298 0.1 10211481
17:00+26ene101163100 0.2 10201398
20:00+24e11127298 0.6 10211227
20 may, thu
thu2023:00+24e11137288 0.6 10211298
02:00+24e101264100 0.8 10201489
05:00+24e91060100 0.0 10201521
08:00+25e9105899 0.0 10211665
11:00+25e10105584 0.0 10221748
14:00+26e910538 0.0 10221854
17:00+26e11115630 0.1 10211528
20:00+25e10116075 0.3 10211592
21 may, fri
fri2123:00+25e1012596 0.0 10221775
02:00+24e91164100 0.1 10221539
05:00+24e91069100 0.4 10221286
08:00+24e81064100 0.6 10231340
11:00+25ene9116014 0.3 10241628
14:00+26ene911583 0.4 10241625
17:00+26ene9106310 0.1 10221429
20:00+25ene8106073 0.1 10231641
22 may, sat
sat2223:00+24ene8105882 0.0 10231712
02:00+24ene7956100 0.1 10221545
05:00+24ene7960100 0.1 10211497
08:00+25ene7856100 0.1 10221530
11:00+24ene685955 0.3 10231473
14:00+25e465897 0.5 10221330
17:00+26ene665533 0.0 10211476
20:00+25ene676557 0.1 10211183